Home > Weather > Nanaimo > Past weeks

Flag for Canada Past Weather in Nanaimo, British Columbia, Canada — Yesterday and Last 2 Weeks

Now
62 °F

Cool.


Feels Like: 62 °F
Forecast: 58 / 70 °F
Wind: 8 mph from Southeast

Location: Entrance Island

Current Time: Jul 23, 2016 at 10:11:03 AM

Latest Report: Jul 23, 2016 at 9:00 AM


Visibility: N/A

Pressure: 30.24 "Hg

Humidity: 80%

Dew Point: 56 °F

Location of NanaimoLocation

Past Weather in Nanaimo — Graph

°F

Nanaimo Temperature Yesterday

Maximum temperature yesterday: 71 °F (at 1:00 AM)
Minimum temperature yesterday: 65 °F (at 9:00 AM)
Average temperature yesterday: 68 °F

High & Low Weather Summary for the Past Weeks

 TemperatureHumidityPressure
High71 °F (Jul 21, 7:00 PM)98% (Jul 17, 9:00 AM)30.25 "Hg (Jul 17, 9:00 AM)
Low57 °F (Jul 8, 10:00 PM)58% (Jul 22, 8:00 PM)29.80 "Hg (Jul 8, 9:00 AM)
Average63 °F83%30.04 "Hg
* Reported Jul 8 9:00 AM — Jul 23 9:00 AM, Nanaimo, Weather by CustomWeather, © 2016

Note: Actual official high and low records may vary slightly from our data, if they occured in-between our weather recording intervals... More about our weather records

Advertising

Nanaimo Weather History for the Previous 24 Hours

Scroll right to see more
 ConditionsComfort  
Time TempWeatherWind HumidityBarometerVisibility
9:00 AM
Sat, Jul 23
62 °FCool.8 mph80%30.24 "HgN/A
8:00 AM62 °FCool.6 mph80%30.23 "HgN/A
7:00 AM62 °FCool.6 mph83%30.22 "HgN/A
6:00 AM62 °FCool.13 mph84%30.22 "HgN/A
5:00 AM62 °FCool.9 mph81%30.21 "HgN/A
4:00 AM65 °FMild.5 mph75%30.21 "HgN/A
3:00 AM66 °FMild.6 mph74%30.21 "HgN/A
2:00 AM65 °FMild.3 mph68%30.21 "HgN/A
1:00 AM65 °FMild.No wind69%30.21 "HgN/A
12:00 AM65 °FMild.5 mph69%30.21 "HgN/A
11:00 PM
Fri, Jul 22
66 °FMild.8 mph66%30.20 "HgN/A
10:00 PM66 °FMild.8 mph65%30.19 "HgN/A
9:00 PM68 °FMild.9 mph64%30.18 "HgN/A
8:00 PM70 °FMild.13 mph58%30.17 "HgN/A
7:00 PM69 °FMild.10 mph80%30.17 "HgN/A
6:00 PM69 °FMild.14 mph78%30.17 "HgN/A
5:00 PM69 °FMild.15 mph76%30.17 "HgN/A
4:00 PM70 °FMild.12 mph69%30.18 "HgN/A
3:00 PM70 °FMild.12 mph70%30.19 "HgN/A
2:00 PM70 °FMild.6 mph70%30.19 "HgN/A
1:00 PM68 °FMild.8 mph78%30.18 "HgN/A
12:00 PM67 °FMild.9 mph77%30.17 "HgN/A
11:00 AM66 °FMild.7 mph77%30.16 "HgN/A
10:00 AM65 °FMild.10 mph81%30.15 "HgN/A
Weather by CustomWeather, © 2016

See weather overviewHow to use our weather pages